User: anonymous   Login
Location: Unspecified
(0.0000°N, 0.0000°E)
Time: 20:02:35
(UTC+00:00)
Language:

HAWK-2B - Orbit

View from above orbital plane
View from above orbital plane
View from above satellite
View from above satellite

Ground track
Ground track

The orbit is defined by the following mean orbital elements,

1 47508U          26145.52383149 +.00000000 +00000-0 +20900-3 0 00004
2 47508  97.2208 189.3221 0004999 286.1708  73.8985 15.34409013    03
Epoch (UTC): 25 May 2026 12:34:19
Eccentricity: 0.0004999
inclination: 97.2208°
perigee height: 459 km
apogee height: 466 km
right ascension of ascending node: 189.3221°
argument of perigee: 286.1708°
revolutions per day: 15.34409013
mean anomaly at epoch: 73.8985°

The dashed part of the orbit path shows where the satellite is in the earth's shadow,  

DLR